User: anonymous   Login
Location: Unspecified
(0.0000°N, 0.0000°E)
Time: 23:11:40
(UTC+00:00)
Language:

UFO-8 - Orbit

View from above orbital plane
View from above orbital plane
View from above satellite
View from above satellite

Ground track
Ground track

The orbit data is extracted from the following two-line orbital elements,

1 25258U 98016A   17224.73642391 0.00000000  00000-0  00000-0 0    00
2 25258   7.5910  37.8932 0008043  27.9480 332.1193  1.00270000    05
Epoch (UTC): 12 August 2017 17:40:27
Eccentricity: 0.0008043
inclination: 7.5910°
perigee height: 35753 km
apogee height: 35820 km
right ascension of ascending node: 37.8932°
argument of perigee: 27.9480°
revolutions per day: 1.00270000
mean anomaly at epoch: 332.1193°
orbit number at epoch: 0

The dashed part of the orbit path shows where the satellite is in the earth's shadow,  

DLR